Marrakech, Morocco

5:53 PM WEST on September 29, 2016 (GMT +0100)
Menara

Weather History for GMMX - May, 2013

Change the Weather History Date:

Saturday, May 11, 2013

  Actual Average Record
Temperature  
Mean Temperature 82 °F -  
Max Temperature 99 °F 81 °F 105 °F (1999)
Min Temperature 65 °F 57 °F 50 °F (2004)
Cooling Degree Days 17    
Growing Degree Days 32 (Base 50)    
Moisture  
Dew Point 46 °F    
Average Humidity 30    
Maximum Humidity 44    
Minimum Humidity 8    
Precipitation  
Precipitation 0.00 in - - ()
Sea Level Pressure  
Sea Level Pressure 30.02 in    
Wind  
Wind Speed 3 mph ()    
Max Wind Speed 15 mph    
Max Gust Speed 28 mph    
Visibility 5.2 miles    
Events      
Averages and records for this station are not official NWS values.
T = Trace of Precipitation, MM = Missing Value Source: Averaged Metar Reports

Daily Weather History Graph

Daily Weather History Graph

Search for Another Location

Airport or City:

Trip Planner

Search our weather history database for the weather conditions in past years. The results will help you decide how hot, cold, wet, or windy it might be!

Date:

Astronomy

May. 11, 2013 Rise Set
Actual Time 6:38 AM WEST 8:19 PM WEST
Civil Twilight 6:11 AM WEST 8:45 PM WEST
Nautical Twilight 5:40 AM WEST 9:17 PM WEST
Astronomical Twilight 5:06 AM WEST 9:51 PM WEST
Moon 7:37 AM WEST (5/11) 9:46 PM WEST (5/11)
Length of Visible Light 14h 33m
Length of Day
13h 40m
New Moon, 2% of the Moon is Illuminated
May 11
New Moon
May 18
First Quarter
May 25
Full
May 31
Last Quarter
Jun 8
New

Hourly Weather History & Observations

Time (WEST) Temp. Heat Index Dew Point Humidity Pressure Visibility Wind Dir Wind Speed Gust Speed Precip Events Conditions
12:00 AM 78.8 °F - 42.8 °F 28% 30.09 in 5.0 mi NE 3.5 mph - N/A   Unknown
12:30 AM 78.8 °F - 42.8 °F 28% 30.09 in 5.0 mi Calm Calm - N/A   Unknown
1:00 AM 73 °F - 44 °F 24% 30.03 in 5 mi Calm Calm - -  
1:00 AM 73.4 °F - 44.6 °F 36% 30.06 in 5.0 mi Calm Calm - N/A   Unknown
1:30 AM 73.4 °F - 42.8 °F 33% 30.06 in 5.0 mi Calm Calm - N/A   Unknown
2:00 AM 71.6 °F - 44.6 °F 38% 30.06 in 5.0 mi Calm Calm - N/A   Unknown
2:30 AM 69.8 °F - 42.8 °F 38% 30.06 in 5.0 mi Calm Calm - N/A   Unknown
3:00 AM 69.8 °F - 44.6 °F 40% 30.04 in 5.0 mi Calm Calm - N/A   Unknown
3:30 AM 73.4 °F - 42.8 °F 33% 30.04 in 5.0 mi SSW 4.6 mph - N/A   Unknown
4:00 AM 72 °F - 41 °F 22% 29.99 in 6 mi SSW 2.3 mph - -  
4:00 AM 71.6 °F - 42.8 °F 35% 30.04 in 5.6 mi South 3.5 mph - N/A   Unknown
4:30 AM 69.8 °F - 41.0 °F 35% 30.04 in 5.6 mi Calm Calm - N/A   Unknown
5:00 AM 68.0 °F - 42.8 °F 40% 30.04 in 5.6 mi Calm Calm - N/A   Unknown
5:30 AM 69.8 °F - 42.8 °F 38% 30.01 in 5.6 mi Calm Calm - N/A   Unknown
6:00 AM 68.0 °F - 42.8 °F 40% 30.01 in 5.0 mi Calm Calm - N/A   Unknown
6:30 AM 66.2 °F - 42.8 °F 43% 30.01 in 5.0 mi ENE 2.3 mph - N/A   Unknown
7:00 AM 66 °F - 43 °F 32% 29.99 in 6 mi Calm Calm - -   Clear
7:00 AM 66.2 °F - 42.8 °F 43% 30.04 in 5.0 mi NNE 1.2 mph - N/A   Unknown
7:30 AM 68.0 °F - 44.6 °F 43% 30.04 in 4.3 mi Variable 1.2 mph - N/A   Unknown
8:00 AM 71.6 °F - 44.6 °F 38% 30.04 in 5.0 mi NE 3.5 mph - N/A   Unknown
8:30 AM 69.8 °F - 44.6 °F 40% 30.04 in 4.3 mi Calm Calm - N/A   Unknown
9:00 AM 69.8 °F - 46.4 °F 43% 30.06 in 5.0 mi West 6.9 mph - N/A   Unknown
9:30 AM 73.4 °F - 46.4 °F 38% 30.06 in 4.3 mi Variable 2.3 mph - N/A   Unknown
10:00 AM 77 °F - 47 °F 24% 29.99 in 4 mi WNW 2.3 mph - -   Clear
10:00 AM 77.0 °F - 46.4 °F 34% 30.06 in 4.3 mi Variable 2.3 mph - N/A   Unknown
10:30 AM 77.0 °F - 48.2 °F 36% 30.06 in 5.0 mi West 3.5 mph - N/A   Unknown
11:00 AM 78.8 °F - 50.0 °F 36% 30.06 in 5.0 mi West 3.5 mph - N/A   Unknown
11:30 AM 80.6 °F - 50.0 °F 34% 30.06 in 5.6 mi WNW 3.5 mph - N/A   Unknown
12:00 PM 84.2 °F - 50.0 °F 30% 30.06 in 5.0 mi Variable 2.3 mph - N/A   Unknown
12:30 PM 86.0 °F - 48.2 °F 27% 30.06 in 5.0 mi Calm Calm - N/A   Unknown
1:00 PM 88 °F - 48 °F 16% 29.94 in 5 mi ENE 4.6 mph - -   Clear
1:00 PM 87.8 °F - 48.2 °F 25% 30.04 in 5.0 mi NE 4.6 mph - N/A   Unknown
2:00 PM 91.4 °F - 44.6 °F 20% 30.01 in 6.2 mi North 3.5 mph - N/A   Partly Cloudy
2:30 PM 93.2 °F - 42.8 °F 17% 30.01 in 6.2 mi NNE 5.8 mph - N/A   Partly Cloudy
3:00 PM 95.0 °F - 42.8 °F 16% 29.98 in 6.2 mi ENE 4.6 mph - N/A   Partly Cloudy
3:30 PM 96.8 °F - 44.6 °F 17% 29.98 in 6.2 mi Variable 6.9 mph - N/A   Partly Cloudy
4:00 PM 97 °F - 42 °F 8% 29.83 in 6 mi ENE 2.3 mph - -   Scattered Clouds
4:00 PM 96.8 °F - 42.8 °F 16% 29.95 in 6.2 mi Variable 2.3 mph - N/A   Partly Cloudy
4:30 PM 98.6 °F - 37.4 °F 12% 29.95 in 6.2 mi Variable 2.3 mph - N/A   Partly Cloudy
5:00 PM 100.4 °F - 35.6 °F 11% 29.95 in 6.2 mi NNW 5.8 mph - N/A   Partly Cloudy
5:30 PM 98.6 °F - 35.6 °F 11% 29.95 in 6.2 mi NW 6.9 mph - N/A   Partly Cloudy
6:00 PM 98.6 °F - 35.6 °F 11% 29.95 in 6.2 mi NNW 9.2 mph - N/A   Partly Cloudy
6:30 PM 98.6 °F - 35.6 °F 11% 29.95 in 6.2 mi NNW 4.6 mph - N/A   Partly Cloudy
7:00 PM 95 °F - 48 °F 12% 29.85 in 6 mi North 11.5 mph - -   Scattered Clouds
7:00 PM 95.0 °F - 46.4 °F 19% 29.98 in 5.6 mi North 11.5 mph - N/A   Partly Cloudy
7:30 PM 93.2 °F - 51.8 °F 24% 29.98 in 4.3 mi North 13.8 mph 27.6 mph N/A   Partly Cloudy
8:00 PM 87.8 °F 85.7 °F 53.6 °F 31% 30.01 in 3.7 mi North 15.0 mph - N/A   Partly Cloudy
8:30 PM 86.0 °F 84.2 °F 53.6 °F 33% 30.04 in 4.3 mi North 13.8 mph - N/A   Partly Cloudy
9:00 PM 82.4 °F 81.4 °F 53.6 °F 37% 30.06 in 4.3 mi NNE 10.4 mph - N/A   Partly Cloudy
9:30 PM 80.6 °F 80.3 °F 53.6 °F 39% 30.09 in 4.3 mi NNE 6.9 mph - N/A   Partly Cloudy
10:00 PM 80 °F - 54 °F 29% 30.03 in 4 mi North 2.3 mph - -   Scattered Clouds
10:00 PM 80.6 °F 80.3 °F 53.6 °F 39% 30.09 in 4.3 mi North 2.3 mph - N/A   Partly Cloudy
10:30 PM 78.8 °F - 53.6 °F 42% 30.09 in 5.0 mi NE 4.6 mph - N/A   Unknown
11:00 PM 77.0 °F - 53.6 °F 44% 30.09 in 5.0 mi NE 4.6 mph - N/A   Unknown
11:30 PM 77.0 °F - 53.6 °F 44% 30.09 in 5.0 mi NE 6.9 mph - N/A   Unknown